• In United Kingdom
  • List of Countries
  • For 7 days
  • Water Temperature
  • Satellite Maps
  • Weather Map
  • Weather Widgets
  • user-avatar
    Login

    Hourly Weather Mitu

    Today, 20 August, Monday

    Time Temperature Precipitation Wind Pressure Humidity
    00:00 +21°C° 0.9 mm 0 mps 741 mmHg 97%
    01:00 +21°C° 0.9 mm 0 mps 741 mmHg 98%
    02:00 +21°C° 0.4 mm 0 mps 741 mmHg 98%
    03:00 +21°C° 0.4 mm 0 mps 741 mmHg 98%
    04:00 +21°C° 0.4 mm 0 mps 741 mmHg 98%
    05:00 +21°C° 0 mm 0 mps 741 mmHg 97%
    06:00 +22°C° 0 mm 0 mps 741 mmHg 97%
    07:00 +22°C° 0 mm 0 mps 742 mmHg 96%
    08:00 +24°C° 1 mm 0 mps 742 mmHg 93%
    09:00 +25°C° 1 mm 0 mps 742 mmHg 90%
    10:00 +28°C° 1 mm 1 mps 742 mmHg 86%
    11:00 +29°C° 1.1 mm 1 mps 741 mmHg 81%
    12:00 +28°C° 1.1 mm 0 mps 741 mmHg 76%
    13:00 +29°C° 1.1 mm 0 mps 740 mmHg 71%
    14:00 +28°C° 1.3 mm 0 mps 740 mmHg 78%
    15:00 +27°C° 1.3 mm 0 mps 739 mmHg 85%
    16:00 +26°C° 1.3 mm 0 mps 739 mmHg 91%
    17:00 +25°C° 0.3 mm 0 mps 739 mmHg 93%
    18:00 +24°C° 0.3 mm 0 mps 740 mmHg 94%
    19:00 +22°C° 0.3 mm 0 mps 740 mmHg 96%
    20:00 +22°C° 0 mm 0 mps 740 mmHg 96%
    21:00 +22°C° 0 mm 0 mps 741 mmHg 96%
    22:00 +22°C° 0 mm 0 mps 741 mmHg 96%
    23:00 +21°C° 0.4 mm 0 mps 741 mmHg 97%

    Tomorrow, 21 August, Tuesday

    Time Temperature Precipitation Wind Pressure Humidity
    00:00 +21°C° 0.4 mm 0 mps 741 mmHg 97%
    01:00 +21°C° 0.4 mm 0 mps 741 mmHg 97%
    02:00 +21°C° 1.2 mm 0 mps 741 mmHg 98%
    03:00 +21°C° 1.2 mm 0 mps 741 mmHg 98%
    04:00 +20°C° 1.2 mm 0 mps 740 mmHg 98%
    05:00 +21°C° 1.6 mm 0 mps 741 mmHg 98%
    06:00 +21°C° 1.6 mm 0 mps 741 mmHg 98%
    07:00 +21°C° 1.6 mm 0 mps 742 mmHg 98%
    08:00 +24°C° 0.3 mm 0 mps 742 mmHg 87%
    09:00 +27°C° 0.3 mm 0 mps 742 mmHg 76%
    10:00 +30°C° 0.3 mm 0 mps 743 mmHg 65%
    11:00 +30°C° 0.3 mm 0 mps 742 mmHg 61%
    12:00 +31°C° 0.3 mm 0 mps 741 mmHg 57%
    13:00 +32°C° 0.3 mm 0 mps 740 mmHg 54%
    14:00 +31°C° 0.3 mm 0 mps 739 mmHg 61%
    15:00 +30°C° 0.3 mm 0 mps 739 mmHg 68%
    16:00 +29°C° 0.3 mm 0 mps 738 mmHg 75%
    17:00 +27°C° 0.6 mm 0 mps 739 mmHg 82%
    18:00 +25°C° 0.6 mm 0 mps 739 mmHg 88%
    19:00 +23°C° 0.6 mm 0 mps 740 mmHg 95%
    20:00 +22°C° 0.2 mm 0 mps 741 mmHg 96%
    21:00 +22°C° 0.2 mm 0 mps 741 mmHg 97%
    22:00 +22°C° 0.2 mm 0 mps 742 mmHg 97%
    23:00 +22°C° 0 mm 0 mps 741 mmHg 98%

    Day after tomorrow, 22 August, Wednesday

    Time Temperature Precipitation Wind Pressure Humidity
    00:00 +23°C° 0 mm 1 mps 741 mmHg 98%
    01:00 +23°C° 0 mm 1 mps 741 mmHg 98%
    02:00 +21°C° 0 mm 0 mps 741 mmHg 98%
    03:00 +21°C° 0 mm 0 mps 740 mmHg 98%
    04:00 +21°C° 0 mm 0 mps 740 mmHg 98%
    05:00 +21°C° 0.4 mm 0 mps 741 mmHg 98%
    06:00 +21°C° 0.4 mm 0 mps 741 mmHg 97%
    07:00 +22°C° 0.4 mm 0 mps 742 mmHg 97%
    08:00 +23°C° 0.9 mm 0 mps 742 mmHg 96%
    09:00 +25°C° 0.9 mm 1 mps 742 mmHg 95%
    10:00 +26°C° 0.9 mm 1 mps 742 mmHg 93%
    11:00 +28°C° 1 mm 1 mps 741 mmHg 86%
    12:00 +29°C° 1 mm 1 mps 741 mmHg 78%
    13:00 +31°C° 1 mm 1 mps 740 mmHg 71%
    14:00 +30°C° 0.5 mm 1 mps 739 mmHg 73%
    15:00 +28°C° 0.5 mm 0 mps 739 mmHg 76%
    16:00 +28°C° 0.5 mm 0 mps 738 mmHg 78%
    17:00 +26°C° 0.3 mm 0 mps 739 mmHg 84%
    18:00 +24°C° 0.3 mm 0 mps 739 mmHg 90%
    19:00 +23°C° 0.3 mm 0 mps 740 mmHg 96%
    20:00 +22°C° 0.5 mm 0 mps 740 mmHg 96%
    21:00 +22°C° 0.5 mm 0 mps 741 mmHg 97%
    22:00 +22°C° 0.5 mm 0 mps 741 mmHg 97%
    23:00 +21°C° 0.3 mm 0 mps 741 mmHg 97%

    23 August, Thursday

    Time Temperature Precipitation Wind Pressure Humidity
    00:00 +21°C° 0.3 mm 0 mps 740 mmHg 97%
    01:00 +21°C° 0.3 mm 0 mps 740 mmHg 98%
    02:00 +21°C° 0.3 mm 0 mps 740 mmHg 98%
    03:00 +21°C° 0.3 mm 0 mps 740 mmHg 98%
    04:00 +21°C° 0.3 mm 0 mps 740 mmHg 98%
    05:00 +21°C° 0.2 mm 0 mps 740 mmHg 97%
    06:00 +22°C° 0.2 mm 0 mps 741 mmHg 97%
    07:00 +22°C° 0.2 mm 0 mps 741 mmHg 96%
    08:00 +23°C° 1.1 mm 0 mps 741 mmHg 94%
    09:00 +25°C° 1.1 mm 0 mps 741 mmHg 91%
    10:00 +28°C° 1.1 mm 1 mps 741 mmHg 88%
    11:00 +28°C° 1.2 mm 1 mps 740 mmHg 86%
    12:00 +29°C° 1.2 mm 1 mps 740 mmHg 84%
    13:00 +30°C° 1.2 mm 1 mps 739 mmHg 82%
    14:00 +29°C° 1.1 mm 1 mps 738 mmHg 83%
    15:00 +27°C° 1.1 mm 0 mps 738 mmHg 85%
    16:00 +27°C° 1.1 mm 0 mps 737 mmHg 87%
    17:00 +25°C° 0.8 mm 0 mps 738 mmHg 90%
    18:00 +24°C° 0.8 mm 0 mps 738 mmHg 93%
    19:00 +23°C° 0.8 mm 0 mps 739 mmHg 96%
    20:00 +22°C° 0 mm 0 mps 739 mmHg 96%
    21:00 +22°C° 0 mm 0 mps 740 mmHg 96%
    22:00 +22°C° 0 mm 0 mps 740 mmHg 96%
    23:00 +22°C° 0 mm 0 mps 740 mmHg 96%

    24 August, Friday

    Time Temperature Precipitation Wind Pressure Humidity
    00:00 +21°C° 0 mm 0 mps 739 mmHg 97%
    01:00 +21°C° 0 mm 0 mps 739 mmHg 97%
    02:00 +21°C° 0.1 mm 0 mps 739 mmHg 97%
    03:00 +21°C° 0.1 mm 0 mps 739 mmHg 97%
    04:00 +21°C° 0.1 mm 0 mps 739 mmHg 97%
    05:00 +21°C° 0 mm 0 mps 739 mmHg 96%
    06:00 +22°C° 0 mm 0 mps 740 mmHg 95%
    07:00 +22°C° 0 mm 0 mps 740 mmHg 94%
    08:00 +25°C° 0.4 mm 0 mps 740 mmHg 85%
    09:00 +27°C° 0.4 mm 0 mps 741 mmHg 75%
    10:00 +29°C° 0.4 mm 0 mps 741 mmHg 66%
    11:00 +30°C° 0.3 mm 0 mps 740 mmHg 62%
    12:00 +33°C° 0.3 mm 1 mps 739 mmHg 58%
    13:00 +33°C° 0.3 mm 1 mps 739 mmHg 54%
    14:00 +33°C° 0.1 mm 1 mps 738 mmHg 55%
    15:00 +32°C° 0.1 mm 1 mps 738 mmHg 56%
    16:00 +32°C° 0.1 mm 1 mps 737 mmHg 57%
    17:00 +28°C° 0.2 mm 0 mps 738 mmHg 67%
    18:00 +26°C° 0.2 mm 0 mps 739 mmHg 76%
    19:00 +24°C° 0.2 mm 0 mps 739 mmHg 85%
    20:00 +23°C° 0.3 mm 0 mps 739 mmHg 87%
    21:00 +23°C° 0.3 mm 0 mps 740 mmHg 90%
    22:00 +22°C° 0.3 mm 0 mps 740 mmHg 92%
    23:00 +22°C° 0.2 mm 0 mps 740 mmHg 94%

    25 August, Saturday

    Time Temperature Precipitation Wind Pressure Humidity
    00:00 +22°C° 0.2 mm 0 mps 739 mmHg 95%
    01:00 +21°C° 0.2 mm 0 mps 739 mmHg 96%
    02:00 +21°C° 0.6 mm 0 mps 739 mmHg 97%
    03:00 +21°C° 0.6 mm 0 mps 739 mmHg 97%
    04:00 +21°C° 0.6 mm 0 mps 739 mmHg 98%
    05:00 +21°C° 0.1 mm 0 mps 740 mmHg 97%
    06:00 +22°C° 0.1 mm 0 mps 741 mmHg 96%
    07:00 +22°C° 0.1 mm 0 mps 741 mmHg 96%
    08:00 +23°C° 0.9 mm 0 mps 741 mmHg 94%
    09:00 +25°C° 0.9 mm 0 mps 741 mmHg 92%
    10:00 +26°C° 0.9 mm 0 mps 741 mmHg 91%
    11:00 +27°C° 0.9 mm 0 mps 741 mmHg 81%
    12:00 +29°C° 0.9 mm 0 mps 740 mmHg 72%
    13:00 +30°C° 0.9 mm 0 mps 740 mmHg 63%
    14:00 +29°C° 1.3 mm 0 mps 739 mmHg 70%
    15:00 +28°C° 1.3 mm 0 mps 739 mmHg 78%
    16:00 +27°C° 1.3 mm 0 mps 739 mmHg 86%
    17:00 +25°C° 0.4 mm 0 mps 739 mmHg 89%
    18:00 +24°C° 0.4 mm 0 mps 740 mmHg 93%
    19:00 +23°C° 0.4 mm 0 mps 740 mmHg 96%
    20:00 +22°C° 0 mm 0 mps 740 mmHg 97%
    21:00 +24°C° 0 mm 1 mps 741 mmHg 97%
    22:00 +24°C° 0 mm 1 mps 741 mmHg 98%
    23:00 +24°C° 0 mm 1 mps 741 mmHg 98%
    Show more